Location: Sternwarte Hubelmatt
(47.0367°N, 8.3053°E)
Time: 21:01:36
(UTC+02:00)

First-Move - Pass Details

Date: 27 April 2024
Orbit: 537 x 600 km, 97.7° (Epoch: 25 May)

Event Time Altitude Azimuth Distance (km) Brightness Sun altitude
Rises 04:37:34 0° 17° (NNE) 2,869 ? -15.3°
Reaches altitude 10° 04:39:48 10° 22° (NNE) 1,963 ? -15.0°
Maximum altitude 04:43:59 53° 100° (E) 750 ? -14.4°
Drops below altitude 10° 04:48:07 10° 177° (S) 1,940 ? -13.9°
Enters shadow 04:48:30 - 179° (S) 2,090 ? -13.9°
